DW1521 Weather Reports


Display with metric or nautical units.
time (UTC)temp
F
wind
direction
speed
MPH
gust
MPH
rain 1hr
in
rain 24hr
in
rain mn
in
humidity
%
barometer
mb
20260508001836 50 315 0.0 0.0 0.00 0.00 0.00 69 1016.7
20260508001336 50 318 0.0 0.0 0.00 0.00 0.00 69 1016.7
20260508000836 50 309 0.0 1.0 0.00 0.00 0.00 69 1016.5
20260507235336 50 332 0.0 1.0 0.00 0.00 0.00 69 1016.4
20260507234336 50 2 1.0 1.0 0.00 0.00 0.00 69 1016.5
20260507233336 51 93 0.0 1.0 0.00 0.00 0.00 68 1016.6
20260507232336 51 97 1.0 2.0 0.00 0.00 0.00 68 1016.7
20260507230836 52 352 0.0 1.0 0.00 0.00 0.00 68 1016.6
20260507225836 52 43 0.0 1.0 0.00 0.00 0.00 68 1016.5
20260507224836 52 343 1.0 2.0 0.00 0.00 0.00 68 1016.4
20260507223835 52 274 0.0 2.0 0.00 0.00 0.00 67 1016.5
20260507222336 53 56 1.0 2.0 0.00 0.00 0.00 67 1016.2
20260507221836 53 49 0.0 2.0 0.00 0.00 0.00 67 1016.3
20260507215836 54 304 0.0 2.0 0.00 0.00 0.00 67 1015.8
20260507215336 54 302 1.0 2.0 0.00 0.00 0.00 67 1016.1
20260507214836 54 323 1.0 2.0 0.00 0.00 0.00 66 1016.1
20260507213836 55 229 2.0 5.0 0.00 0.00 0.00 66 1015.9
20260507212836 55 15 0.0 1.0 0.00 0.00 0.00 66 1015.6
20260507212336 55 331 0.0 1.0 0.00 0.00 0.00 66 1015.7
20260507210836 56 330 2.0 3.0 0.00 0.00 0.00 65 1015.7
20260507204336 57 267 0.0 1.0 0.00 0.00 0.00 64 1015.4
20260507203336 57 240 0.0 0.0 0.00 0.00 0.00 64 1015.3
20260507202836 57 240 1.0 2.0 0.00 0.00 0.00 63 1015.4
20260507202336 58 264 1.0 2.0 0.00 0.00 0.00 63 1015.3
20260507201836 58 302 1.0 1.0 0.00 0.00 0.00 63 1015.5
20260507201336 58 234 1.0 1.0 0.00 0.00 0.00 63 1015.3
20260507200836 58 204 1.0 1.0 0.00 0.00 0.00 62 1015.6
20260507200336 58 206 1.0 2.0 0.00 0.00 0.00 62 1015.3
20260507195836 59 218 1.0 2.0 0.00 0.00 0.00 62 1015.4
20260507195336 59 267 0.0 1.0 0.00 0.00 0.00 62 1015.6
20260507193835 60 60 0.0 1.0 0.00 0.00 0.00 61 1015.3
20260507192836 60 60 1.0 3.0 0.00 0.00 0.00 61 1015.3
20260507192336 60 12 1.0 2.0 0.00 0.00 0.00 60 1015.3
20260507191836 60 359 0.0 1.0 0.00 0.00 0.00 60 1015.6
20260507190836 61 0 0.0 1.0 0.00 0.00 0.00 60 1015.4
20260507190335 61 0 0.0 1.0 0.00 0.00 0.00 60 1015.4
20260507185336 61 341 0.0 1.0 0.00 0.00 0.00 59 1015.3
20260507184336 62 324 1.0 2.0 0.00 0.00 0.00 59 1015.3
20260507183836 62 302 0.0 1.0 0.00 0.00 0.00 58 1015.2
20260507183336 62 301 1.0 1.0 0.00 0.00 0.00 58 1015.3
20260507182836 62 301 0.0 1.0 0.00 0.00 0.00 58 1015.2
20260507182336 62 319 0.0 1.0 0.00 0.00 0.00 58 1015.0
20260507180336 64 308 1.0 5.0 0.00 0.00 0.00 57 1014.8
20260507174336 65 267 1.0 2.0 0.00 0.00 0.00 55 1014.7
20260507172336 66 273 2.0 3.0 0.00 0.00 0.00 55 1014.8
20260507171836 66 275 2.0 3.0 0.00 0.00 0.00 54 1014.9
20260507170336 67 298 2.0 6.0 0.00 0.00 0.00 54 1014.5
20260507163336 68 313 5.0 7.0 0.00 0.00 0.00 53 1014.7
20260507162836 68 319 2.0 6.0 0.00 0.00 0.00 53 1014.8
20260507162335 68 274 3.0 6.0 0.00 0.00 0.00 52 1014.8
20260507161836 68 276 2.0 6.0 0.00 0.00 0.00 51 1014.9
20260507160836 68 289 2.0 6.0 0.00 0.00 0.00 51 1014.7
20260507155336 68 276 2.0 6.0 0.00 0.00 0.00 51 1015.1
20260507154835 68 266 2.0 3.0 0.00 0.00 0.00 50 1014.9
20260507154336 68 268 2.0 5.0 0.00 0.00 0.00 50 1015.0
20260507153336 68 314 2.0 6.0 0.00 0.00 0.00 51 1014.9
20260507152836 68 291 3.0 6.0 0.00 0.00 0.00 51 1015.0
20260507152335 68 283 2.0 5.0 0.00 0.00 0.00 51 1015.2
20260507151335 68 271 2.0 5.0 0.00 0.00 0.00 50 1015.2
20260507150335 68 276 2.0 5.0 0.00 0.00 0.00 50 1015.1
20260507145836 68 281 3.0 6.0 0.00 0.00 0.00 50 1015.6
20260507144836 69 294 2.0 6.0 0.00 0.00 0.00 50 1015.5
20260507144336 69 307 2.0 5.0 0.00 0.00 0.00 50 1015.5
20260507143336 69 295 2.0 3.0 0.00 0.00 0.00 49 1015.5
20260507142835 69 282 2.0 5.0 0.00 0.00 0.00 49 1015.6
20260507141336 69 309 3.0 7.0 0.00 0.00 0.00 48 1015.6
20260507140836 69 277 3.0 8.0 0.00 0.00 0.00 48 1015.7
20260507140336 69 302 3.0 9.0 0.00 0.00 0.00 48 1015.7
20260507135835 70 286 6.0 8.0 0.00 0.00 0.00 48 1015.9
20260507135336 70 290 3.0 7.0 0.00 0.00 0.00 48 1015.9
20260507134836 70 286 2.0 6.0 0.00 0.00 0.00 48 1015.9
20260507133836 70 304 3.0 9.0 0.00 0.00 0.00 47 1015.9
20260507133336 70 296 5.0 10.0 0.00 0.00 0.00 47 1015.9
20260507131336 70 296 5.0 10.0 0.00 0.00 0.00 47 1016.0
20260507130336 71 301 5.0 14.0 0.00 0.00 0.00 47 1016.1
20260507125836 71 294 4.0 9.0 0.00 0.00 0.00 47 1016.3
20260507124336 71 282 3.0 8.0 0.00 0.00 0.00 46 1016.6
20260507123836 71 310 6.0 10.0 0.00 0.00 0.00 46 1016.4
20260507123335 71 292 6.0 12.0 0.00 0.00 0.00 47 1016.5
20260507122335 70 156 5.0 10.0 0.00 0.00 0.00 47 1016.5
20260507121336 70 299 5.0 8.0 0.00 0.00 0.00 48 1016.5
20260507120836 70 310 3.0 7.0 0.00 0.00 0.00 48 1016.4
20260507115336 70 342 3.0 10.0 0.00 0.00 0.00 48 1016.6
20260507114836 71 331 5.0 8.0 0.00 0.00 0.00 48 1016.6
20260507113836 71 299 5.0 14.0 0.00 0.00 0.00 47 1016.5
20260507113336 71 290 6.0 9.0 0.00 0.00 0.00 47 1016.6
20260507111335 72 327 8.0 13.0 0.00 0.00 0.00 45 1016.5
20260507110837 73 311 6.0 10.0 0.00 0.00 0.00 45 1016.6
20260507105836 73 305 7.0 16.0 0.00 0.00 0.00 44 1016.7
20260507104836 74 289 3.0 5.0 0.00 0.00 0.00 44 1016.6
20260507103835 74 247 3.0 5.0 0.00 0.00 0.00 44 1016.6
20260507101836 74 258 3.0 6.0 0.00 0.00 0.00 45 1016.8
20260507100836 74 298 2.0 6.0 0.00 0.00 0.00 46 1016.7
20260507094336 73 291 3.0 7.0 0.00 0.00 0.00 47 1017.1
20260507091835 72 258 3.0 7.0 0.00 0.00 0.00 48 1017.1
20260507090836 72 217 2.0 6.0 0.00 0.00 0.00 50 1017.2
20260507085836 71 275 3.0 6.0 0.00 0.00 0.00 50 1017.2
20260507085335 71 145 2.0 6.0 0.00 0.00 0.00 50 1017.0
20260507084336 70 260 3.0 6.0 0.00 0.00 0.00 51 1017.1
20260507083836 70 172 2.0 5.0 0.00 0.00 0.00 53 1017.4
20260507082836 69 148 2.0 5.0 0.00 0.00 0.00 54 1017.3
20260507082335 69 151 3.0 5.0 0.00 0.00 0.00 55 1017.2
20260507081336 67 178 2.0 5.0 0.00 0.00 0.00 57 1017.2
20260507075836 66 162 1.0 2.0 0.00 0.00 0.00 57 1017.2
20260507075336 66 71 2.0 3.0 0.00 0.00 0.00 57 1017.1
20260507074336 65 45 2.0 5.0 0.00 0.00 0.00 58 1017.2
20260507073835 65 101 3.0 6.0 0.00 0.00 0.00 60 1017.3
20260507072836 63 13 1.0 3.0 0.00 0.00 0.00 61 1017.3
20260507072336 63 30 2.0 5.0 0.00 0.00 0.00 62 1017.4
20260507071336 62 281 1.0 2.0 0.00 0.00 0.00 63 1017.5
20260507070836 61 286 2.0 5.0 0.00 0.00 0.00 63 1017.4
20260507070336 61 281 3.0 5.0 0.00 0.00 0.00 63 1017.4
20260507065336 61 250 1.0 2.0 0.00 0.00 0.00 65 1017.5
20260507064836 60 249 0.0 2.0 0.00 0.00 0.00 65 1017.4
20260507063837 59 324 0.0 1.0 0.00 0.00 0.00 65 1017.3
20260507062836 59 312 1.0 2.0 0.00 0.00 0.00 65 1017.4
20260507061835 59 259 1.0 6.0 0.00 0.00 0.00 66 1017.4
20260507061336 59 218 2.0 5.0 0.00 0.00 0.00 66 1017.5
20260507060836 58 243 2.0 5.0 0.00 0.00 0.00 67 1017.5
20260507055335 57 125 1.0 5.0 0.00 0.00 0.00 69 1017.1
20260507054836 56 157 1.0 3.0 0.00 0.00 0.00 70 1017.3
20260507054336 55 147 2.0 5.0 0.00 0.00 0.00 70 1017.1
20260507053835 54 158 2.0 5.0 0.00 0.00 0.00 70 1017.1
20260507053336 54 162 2.0 5.0 0.00 0.00 0.00 70 1017.2
20260507052336 53 176 2.0 3.0 0.00 0.00 0.00 70 1017.3
20260507051836 52 177 1.0 2.0 0.00 0.00 0.00 70 1017.4
20260507044836 50 206 1.0 2.0 0.00 0.00 0.00 70 1017.0
20260507044336 49 181 1.0 3.0 0.00 0.00 0.00 70 1016.9
20260507043836 49 193 1.0 2.0 0.00 0.00 0.00 69 1016.8
20260507042836 49 9 0.0 0.0 0.00 0.00 0.00 68 1016.7
20260507040835 48 1 0.0 1.0 0.00 0.00 0.00 68 1016.8
20260507033336 47 330 1.0 1.0 0.00 0.00 0.00 68 1016.3
20260507032336 47 197 0.0 1.0 0.00 0.00 0.00 67 1016.2
20260507031836 48 221 1.0 3.0 0.00 0.00 0.00 67 1016.4
20260507030835 48 39 1.0 2.0 0.00 0.00 0.00 66 1016.3
20260507030335 48 29 1.0 1.0 0.00 0.00 0.00 66 1016.1
20260507025836 48 24 0.0 0.0 0.00 0.00 0.00 66 1015.9
20260507025335 48 28 0.0 1.0 0.00 0.00 0.00 66 1015.5
20260507024335 49 24 1.0 2.0 0.00 0.00 0.00 65 1015.7
20260507020836 49 14 1.0 2.0 0.00 0.00 0.00 64 1015.8
20260507020336 49 267 0.0 1.0 0.00 0.00 0.00 64 1015.6
20260507015836 50 250 0.0 1.0 0.00 0.00 0.00 64 1015.4
20260507014835 50 279 0.0 1.0 0.00 0.00 0.00 64 1015.3
20260507014336 50 309 0.0 1.0 0.00 0.00 0.00 64 1015.2
20260507012835 51 303 1.0 2.0 0.00 0.00 0.00 63 1015.4
20260507011335 52 279 1.0 1.0 0.00 0.00 0.00 62 1015.3
20260507004335 53 324 1.0 2.0 0.00 0.00 0.00 62 1014.8
20260507003835 53 305 1.0 2.0 0.00 0.00 0.00 62 1014.7
20260507003336 53 327 1.0 5.0 0.00 0.00 0.00 62 1014.7